CAPE
0 0 0 0 0 0 0 0 0 0 0 0 0 0 0 0 0 0 0 0 0 0
0 0 0 0 0 0 0 0 0 0 0 0 0 0 0 0 0 0 0 0 0 0
0 0 0 0 0 0 0 0 0 0 0 0 0 0 0 0 0 0 0 0 0 0
0 0 0 0 0 0 0 0 0 0 0 0 0 0 0 0 0 0 0 0 0 0
0 0 0 0 0 0 0 0 0 0 0 0 0 0 0 0 0 0 0 0 0 0
0 0 0 0 0 0 0 0 0 0 0 0 0 0 0 0 0 0 0 0 0 0
0 0 0 0 0 0 4 0 0 0 0 0 0 0 0 0 0 0 0 0 0 0
0 0 0 0 1 4 2 0 0 0 0 0 0 0 0 0 0 0 0 0 0 0
0 0 0 1 2 0 0 1 0 0 0 0 0 0 0 0 0 0 0 0 0 0
0 0 0 0 0 0 0 0 0 0 0 0 0 0 0 0 0 0 0 0 0 0
0 0 0 0 0 0 0 0 0 0 0 0 0 0 0 0 0 0 0 0 0 0
0 0 0 0 0 0 0 0 0 0 0 0 0 0 0 0 0 0 0 0 0 0
0 0 0 0 0 0 0 0 0 0 0 0 0 0 0 0 0 0 0 0 0 0
0 0 0 0 0 0 0 0 0 0 0 0 0 0 0 0 0 0 0 0 0 0
CIN
0 0 0 0 0 0 0 0 0 0 0 0 0 0 0 0 0 0 0 0 0 0
0 0 0 0 0 0 0 0 0 0 0 0 0 0 0 0 0 0 0 0 0 0
0 0 0 0 0 0 0 0 0 0 0 0 0 0 0 0 0 0 0 0 0 0
0 0 0 0 0 0 0 0 0 0 0 0 0 0 0 0 0 0 0 0 0 0
0 0 0 0 0 0 0 0 0 0 0 0 0 0 0 0 0 0 0 0 0 0
0 0 0 0 0 0 0 0 0 0 0 0 0 0 0 0 0 0 0 0 0 0
0 0 0 0 0 0 0 0 0 0 0 0 0 0 0 0 0 0 0 0 0 0
0 0 0 0 0 0 0 0 0 0 0 0 0 0 0 0 0 0 0 0 0 0
0 0 0 0 0 0 0 0 0 0 0 0 0 0 0 0 0 0 0 0 0 0
0 0 0 0 0 0 0 0 0 0 0 0 0 0 0 0 0 0 0 0 0 0
0 0 0 0 0 0 0 0 0 0 0 0 0 0 0 0 0 0 0 0 0 0
0 0 0 0 0 0 0 0 0 0 0 0 0 0 0 0 0 0 0 0 0 0
0 0 0 0 0 0 0 0 0 0 0 0 0 0 0 0 0 0 0 0 0 0
0 0 0 0 0 0 0 0 0 0 0 0 0 0 0 0 0 0 0 0 0 0
Wind_Speed
10 8 7 6 8 6 5 4 6 6 5 5 4 4 4 4 3 5 4 7 6 4
8 8 8 8 8 7 6 5 5 6 6 6 4 3 6 4 5 5 4 5 6 4
9 8 8 8 8 7 6 5 6 6 5 6 5 6 5 4 4 6 4 5 6 6
9 8 8 8 6 6 6 6 7 6 5 5 5 6 5 5 5 7 7 6 7 7
9 8 8 8 6 5 3 4 5 6 5 6 6 6 6 6 6 8 10 6 8 7
10 9 9 9 7 5 5 3 4 6 6 5 5 5 6 7 7 9 7 7 7 6
8 8 7 8 8 7 6 5 4 5 6 6 6 6 4 7 8 8 7 8 8 8
8 10 9 8 8 8 7 5 6 4 6 7 6 5 5 7 7 7 9 9 9 6
12 9 8 8 8 7 5 6 8 6 9 7 5 8 7 9 8 7 8 9 9 8
11 10 10 9 8 7 6 6 10 8 9 8 5 13 16 16 8 7 7 7 8 7
11 10 10 10 8 8 8 9 8 9 8 8 5 12 15 16 9 7 6 7 6 6
11 12 12 10 9 8 9 8 6 7 9 7 4 11 11 10 7 6 5 5 6 5
12 13 12 11 11 8 8 8 7 7 6 10 4 10 8 5 6 7 4 2 4 10
11 12 12 12 10 9 9 9 7 7 7 6 6 4 8 6 4 7 6 4 2 1
Wind_Direction
129 143 153 145 144 135 133 127 119 115 112 97 90 97 94 82 90 76 76 72 55 49
105 110 114 104 109 118 123 125 129 115 110 117 114 102 102 85 74 80 73 72 58 64
97 93 91 93 104 112 118 112 122 114 131 126 111 89 105 94 94 95 75 77 66 40
101 101 105 106 107 111 123 133 120 136 136 125 112 111 107 99 98 93 80 66 62 42
112 104 103 102 102 109 127 108 134 134 131 119 109 109 105 101 88 87 78 79 67 49
134 130 128 128 128 136 111 150 159 134 124 118 119 113 117 110 97 81 99 96 87 74
131 131 141 142 141 126 164 181 145 117 118 100 78 60 83 113 105 109 113 102 93 80
142 151 154 149 146 158 159 116 75 121 97 91 77 66 56 89 92 111 117 104 92 102
146 149 138 142 152 134 142 188 180 104 102 88 82 57 98 109 101 83 88 103 93 73
156 149 146 141 144 160 133 112 95 96 103 98 90 93 104 103 93 88 74 76 95 87
155 154 154 152 153 140 136 125 133 124 119 111 113 117 113 107 100 95 80 84 101 101
159 153 151 156 148 141 132 132 116 125 125 126 116 136 125 121 112 101 103 114 106 99
158 158 159 153 150 142 134 131 126 124 125 144 135 159 141 121 129 127 126 63 68 108
158 159 158 148 147 141 140 133 133 130 135 131 149 183 162 139 156 155 149 129 98 70